Regional Weather Roundup
Issued by NWS

Home | Current Version | Previous Version | Graphics & Text | Print | Product List | Glossary On
Versions: 1 2 3 4 5 6 7 8 9 10 11 12 13 14 15 16 17 18 19 20 21 22 23 24 25 26 27 28 29 30 31 32 33 34 35 36 37 38 39 40 41 42 43 44 45 46 47 48 49 50
000
ASUS43 KOAX 022110
RWRNE

WEATHER ROUNDUP FOR NEBRASKA
NATIONAL WEATHER SERVICE OMAHA NE
300 PM CST MON MAR 02 2015

NOTES: SATELLITE DATA IS BEING USED TO AUGMENT CLOUD COVER ABOVE
       12000 FEET.
       "FAIR" INDICATES FEW OR NO CLOUDS BELOW 12,000 FEET WITH NO
       SIGNIFICANT WEATHER AND/OR OBSTRUCTIONS TO VISIBILITY.

  * THESE STATIONS DO NOT REPORT WEATHER SUCH AS RAIN...SNOW OR FOG.

NEZ001>004-019>022-054>056-022200-
NEBRASKA PANHANDLE

CITY           SKY/WX    TMP DP  RH WIND       PRES   REMARKS
SCOTTSBLUFF    MOSUNNY   46  24  42 SE12G20   29.75F
ALLIANCE       PTSUNNY   41  22  46 S18G28    29.79F
CHADRON        CLOUDY    44  26  49 SW14      29.77F
KIMBALL        SUNNY     41  25  52 S14       29.73F
SIDNEY         CLOUDY    36  24  62 S17       29.80F WCI  26
$$

NEZ057>060-069>072-079>082-022200-
SOUTHWEST NEBRASKA

CITY           SKY/WX    TMP DP  RH WIND       PRES   REMARKS
NORTH PLATTE   PTSUNNY   37  19  48 S23G31    29.93F WCI  26
IMPERIAL         N/A     32  20  61 S22G30    29.91F WCI  19
LEXINGTON      CLOUDY    38  18  44 S25G36    30.01F WCI  26
MCCOOK         CLOUDY    39  20  46 S22G30    29.98F WCI  29
OGALLALA       CLOUDY    33  22  63 S18G24    29.90F WCI  22
$$

NEZ005>010-023>029-035>040-094-022200-
NORTH CENTRAL NEBRASKA

CITY           SKY/WX    TMP DP  RH WIND       PRES   REMARKS
VALENTINE      PTSUNNY   40  10  29 S24G33    29.88F WCI  29
AINSWORTH      PTSUNNY   40  13  32 S26G35    29.92F WCI  29
BROKEN BOW     CLOUDY    38  15  39 S26G40    29.98F WCI  26
O`NEILL        CLOUDY    40  16  36 S22G36    30.01F WCI  31
ORD            CLOUDY    39  14  36 S24G37    30.02F WCI  28
THEDFORD       MOSUNNY   40  19  42 S28G33    29.91F WCI  29
$$

NEZ041-046>049-061>064-073>077-083>087-022200-
SOUTH CENTRAL NEBRASKA

CITY           SKY/WX    TMP DP  RH WIND       PRES   REMARKS
GRAND ISLAND   PTSUNNY   43  16  33 S22G33    30.09F
AURORA         PTSUNNY   42  15  34 S23G30    30.10F
HASTINGS       MOSUNNY   41  14  33 S23G37    30.08F
HEBRON         MOSUNNY   41  17  38 SE20      30.16F
HOLDREGE       MOSUNNY   37  15  41 S23G37    30.04F WCI  26
KEARNEY *      MOSUNNY   41  14  33 S31G38    30.06F
YORK           MOSUNNY   39  18  41 S21G29    30.13F WCI  29
$$

NEZ011>018-030>034-042>045-022200-
NORTHEAST NEBRASKA

CITY           SKY/WX    TMP DP  RH WIND       PRES   REMARKS
NORFOLK        CLOUDY    40  19  43 S21G31    30.11F WCI  30
ALBION         CLOUDY    40  14  34 S28G39    30.08F WCI  29
BLAIR          CLOUDY    40  21  46 S14G23    30.19F WCI  32
COLUMBUS *     CLOUDY    41  18  38 S21G26    30.15F
FREMONT        CLOUDY    42  21  42 SE14      30.18F
TEKAMAH        CLOUDY    39  21  48 SE15      30.21F WCI  31
WAYNE          CLOUDY    39  19  44 S20       30.15F WCI  30
$$

NEZ050>053-065>068-078-088>093-022200-
SOUTHEAST NEBRASKA

CITY           SKY/WX    TMP DP  RH WIND       PRES   REMARKS
LINCOLN        CLOUDY    42  19  39 S21G26    30.19F
OMAHA EPPLEY   PTSUNNY   40  19  43 S17G26    30.22F WCI  31
BEATRICE       MOSUNNY   41  19  42 S15       30.18F
FALLS CITY     PTSUNNY   43  19  38 SE15      30.24F
NEBRASKA CITY  CLOUDY    41  14  33 S18       30.23F
PLATTSMOUTH    CLOUDY    40  17  39 SE14G21   30.22F WCI  32
$$

NEZ044-045-051>053-067-022200-
OMAHA AREA

CITY           SKY/WX    TMP DP  RH WIND       PRES   REMARKS
OMAHA EPPLEY   PTSUNNY   40  19  43 S17G26    30.22F WCI  31
BLAIR          CLOUDY    40  21  46 S14G23    30.19F WCI  32
FREMONT        CLOUDY    42  21  42 SE14      30.18F
MILLARD        CLOUDY    42  20  41 S16G23    30.21F
OFFUTT AFB     CLOUDY    40  20  43 SE15      30.21F WCI  32
PLATTSMOUTH    CLOUDY    40  17  39 SE14G21   30.22F WCI  32
WAHOO          CLOUDY    43  17  36 S22G28    30.17F
$$


USA.gov is the U.S. government's official web portal to all federal, state and local government web resources and services.